RYR9941 LEAL-LHBP

Flight info

Callsign RYR9941
Flight time 2h 24m
Altitude 38000
Route MITOS N851 MHN M603 MORSS DCT BAVON DCT ORKUM DCT ELSAG DCT ALG DCT TINTO DCT ERDON DCT ERLIT DCT ANC DCT IBENI/N0440F390 DCT KOPRY DCT ULZAK
Aircraft B38M/M-SDE1FGHILORVWXY/HB1

Departure

Time 2026-05-06 17:02
Airport Alicante-Elche Miguel Hernández Airport (LEAL)

Arrival

Time 2026-05-06 19:27
Airport Budapest Liszt Ferenc International Airport (LHBP)
Time Latitude Longitude Altitude Speed Heading
2026-05-06 16:33 38.28567 -0.55042 90 ft 0 kts 303°
2026-05-06 16:35 38.28567 -0.55041 90 ft 0 kts 303°
2026-05-06 16:51 38.28558 -0.55023 72 ft 4 kts 303°
2026-05-06 16:51 38.28543 -0.54995 91 ft 4 kts 303°
2026-05-06 16:52 38.28538 -0.54972 92 ft 4 kts 233°
2026-05-06 16:52 38.28554 -0.54960 90 ft 2 kts 190°
2026-05-06 16:52 38.28577 -0.54955 90 ft 2 kts 190°
2026-05-06 16:52 38.28578 -0.54955 90 ft 0 kts 190°
2026-05-06 16:53 38.28579 -0.54955 90 ft 0 kts 190°
2026-05-06 16:53 38.28578 -0.54955 90 ft 0 kts 190°
2026-05-06 16:53 38.28579 -0.54955 90 ft 0 kts 190°
2026-05-06 16:55 38.28578 -0.54955 90 ft 0 kts 190°
2026-05-06 16:55 38.28567 -0.54958 93 ft 4 kts 190°
2026-05-06 16:56 38.28510 -0.54971 91 ft 13 kts 190°
2026-05-06 16:56 38.28435 -0.54996 90 ft 11 kts 217°
2026-05-06 16:56 38.28417 -0.55088 90 ft 12 kts 257°
2026-05-06 16:56 38.28371 -0.55186 92 ft 14 kts 233°
2026-05-06 16:57 38.28327 -0.55290 91 ft 11 kts 261°
2026-05-06 16:57 38.28334 -0.55382 94 ft 11 kts 280°
2026-05-06 16:57 38.28351 -0.55510 98 ft 19 kts 279°
2026-05-06 16:57 38.28377 -0.55692 103 ft 21 kts 281°
2026-05-06 16:58 38.28403 -0.55874 106 ft 21 kts 281°
2026-05-06 16:58 38.28428 -0.56054 109 ft 21 kts 280°
2026-05-06 16:58 38.28454 -0.56240 112 ft 22 kts 279°
2026-05-06 16:58 38.28479 -0.56423 118 ft 20 kts 280°
2026-05-06 16:59 38.28502 -0.56593 122 ft 19 kts 280°
2026-05-06 16:59 38.28526 -0.56759 125 ft 18 kts 280°
2026-05-06 16:59 38.28546 -0.56905 135 ft 15 kts 280°
2026-05-06 16:59 38.28566 -0.57040 140 ft 18 kts 280°
2026-05-06 17:00 38.28591 -0.57217 148 ft 20 kts 280°
2026-05-06 17:00 38.28608 -0.57352 153 ft 13 kts 275°
2026-05-06 17:00 38.28570 -0.57423 156 ft 10 kts 194°
2026-05-06 17:00 38.28496 -0.57442 157 ft 13 kts 189°
2026-05-06 17:01 38.28441 -0.57407 155 ft 11 kts 107°
2026-05-06 17:01 38.28436 -0.57372 154 ft 4 kts 100°
2026-05-06 17:01 38.28394 -0.57080 141 ft 76 kts 100°
2026-05-06 17:01 38.28254 -0.56063 131 ft 151 kts 99°
2026-05-06 17:02 38.28021 -0.54613 696 ft 182 kts 101°
2026-05-06 17:02 38.27745 -0.52898 1482 ft 206 kts 104°
2026-05-06 17:02 38.27483 -0.51181 2743 ft 197 kts 103°
2026-05-06 17:02 38.27429 -0.49370 3382 ft 217 kts 85°
2026-05-06 17:03 38.27968 -0.47490 3854 ft 238 kts 57°
2026-05-06 17:03 38.28940 -0.45711 4368 ft 248 kts 54°
2026-05-06 17:03 38.29932 -0.43871 4967 ft 255 kts 54°
2026-05-06 17:03 38.30937 -0.41986 5546 ft 262 kts 54°
2026-05-06 17:04 38.31968 -0.40032 6374 ft 273 kts 54°
2026-05-06 17:04 38.33016 -0.37926 7072 ft 290 kts 62°
2026-05-06 17:04 38.33778 -0.35526 8047 ft 294 kts 68°
2026-05-06 17:04 38.34522 -0.33068 8958 ft 301 kts 67°
2026-05-06 17:05 38.35291 -0.30560 9898 ft 306 kts 67°
2026-05-06 17:05 38.36097 -0.27996 10564 ft 320 kts 66°
2026-05-06 17:05 38.36996 -0.25311 11064 ft 338 kts 65°
2026-05-06 17:05 38.37938 -0.22498 11656 ft 352 kts 66°
2026-05-06 17:06 38.38907 -0.19590 12430 ft 358 kts 66°
2026-05-06 17:06 38.39886 -0.16641 13203 ft 366 kts 66°
2026-05-06 17:06 38.40886 -0.13628 13930 ft 372 kts 66°
2026-05-06 17:06 38.41899 -0.10571 14632 ft 377 kts 66°
2026-05-06 17:07 38.42926 -0.07468 15336 ft 382 kts 66°
2026-05-06 17:07 38.43951 -0.04371 16021 ft 386 kts 67°
2026-05-06 17:07 38.44992 -0.01196 16716 ft 391 kts 68°
2026-05-06 17:07 38.46030 0.02031 17385 ft 395 kts 68°
2026-05-06 17:08 38.47079 0.05293 18045 ft 400 kts 68°
2026-05-06 17:08 38.48142 0.08593 18618 ft 404 kts 68°
2026-05-06 17:08 38.49213 0.11927 19184 ft 408 kts 68°
2026-05-06 17:08 38.50294 0.15291 19745 ft 412 kts 67°
2026-05-06 17:09 38.51383 0.18689 20287 ft 416 kts 67°
2026-05-06 17:09 38.52483 0.22123 20827 ft 420 kts 67°
2026-05-06 17:09 38.53592 0.25591 21363 ft 423 kts 67°
2026-05-06 17:09 38.54708 0.29085 21885 ft 427 kts 67°
2026-05-06 17:10 38.55836 0.32619 22392 ft 431 kts 67°
2026-05-06 17:10 38.56971 0.36183 22919 ft 435 kts 67°
2026-05-06 17:10 38.58116 0.39780 23400 ft 439 kts 67°
2026-05-06 17:10 38.59270 0.43411 23832 ft 443 kts 67°
2026-05-06 17:11 38.60432 0.47073 24253 ft 446 kts 67°
2026-05-06 17:11 38.61599 0.50760 24667 ft 449 kts 67°
2026-05-06 17:11 38.62772 0.54470 25079 ft 452 kts 67°
2026-05-06 17:11 38.63952 0.58206 25499 ft 455 kts 68°
2026-05-06 17:12 38.65139 0.61971 25889 ft 458 kts 68°
2026-05-06 17:12 38.66332 0.65761 26273 ft 461 kts 68°
2026-05-06 17:12 38.67530 0.69568 26662 ft 463 kts 68°
2026-05-06 17:12 38.68737 0.73412 27045 ft 466 kts 68°
2026-05-06 17:13 38.69949 0.77275 27419 ft 469 kts 68°
2026-05-06 17:13 38.71167 0.81164 27785 ft 472 kts 68°
2026-05-06 17:13 38.72393 0.85083 28159 ft 475 kts 68°
2026-05-06 17:13 38.73622 0.89016 28507 ft 478 kts 68°
2026-05-06 17:14 38.74857 0.92977 28863 ft 481 kts 68°
2026-05-06 17:14 38.76100 0.96967 29195 ft 484 kts 68°
2026-05-06 17:14 38.77349 1.00981 29540 ft 486 kts 68°
2026-05-06 17:14 38.78604 1.05021 29868 ft 489 kts 69°
2026-05-06 17:15 38.79864 1.09086 30167 ft 492 kts 69°
2026-05-06 17:15 38.81130 1.13172 30459 ft 494 kts 69°
2026-05-06 17:15 38.82396 1.17266 30753 ft 496 kts 69°
2026-05-06 17:15 38.83672 1.21399 31047 ft 498 kts 69°
2026-05-06 17:16 38.84949 1.25542 31330 ft 500 kts 69°
2026-05-06 17:16 38.86229 1.29699 31611 ft 502 kts 69°
2026-05-06 17:16 38.87512 1.33876 31891 ft 504 kts 69°
2026-05-06 17:16 38.88800 1.38071 32167 ft 506 kts 69°
2026-05-06 17:17 38.90094 1.42292 32444 ft 508 kts 69°
2026-05-06 17:17 38.91381 1.46521 32718 ft 510 kts 70°
2026-05-06 17:17 38.92639 1.50790 32989 ft 512 kts 70°
2026-05-06 17:17 38.93887 1.55020 33237 ft 514 kts 70°
2026-05-06 17:18 38.95174 1.59381 33505 ft 516 kts 70°
2026-05-06 17:18 38.96448 1.63701 33755 ft 518 kts 70°
2026-05-06 17:18 38.97721 1.68026 34070 ft 518 kts 70°
2026-05-06 17:18 38.98992 1.72349 34383 ft 517 kts 70°
2026-05-06 17:19 39.00243 1.76614 34677 ft 516 kts 70°
2026-05-06 17:19 39.01509 1.80935 34986 ft 516 kts 70°
2026-05-06 17:19 39.02768 1.85241 35285 ft 515 kts 70°
2026-05-06 17:19 39.04024 1.89540 35587 ft 514 kts 70°
2026-05-06 17:20 39.05299 1.93912 35870 ft 514 kts 70°
2026-05-06 17:20 39.06549 1.98209 36145 ft 513 kts 70°
2026-05-06 17:20 39.07797 2.02502 36413 ft 512 kts 70°
2026-05-06 17:20 39.09044 2.06801 36682 ft 512 kts 70°
2026-05-06 17:21 39.10285 2.11088 36936 ft 511 kts 70°
2026-05-06 17:21 39.11509 2.15317 37171 ft 510 kts 70°
2026-05-06 17:21 39.12744 2.19595 37414 ft 510 kts 70°
2026-05-06 17:21 39.13977 2.23872 37648 ft 509 kts 70°
2026-05-06 17:22 39.15207 2.28147 37861 ft 509 kts 70°
2026-05-06 17:22 39.17664 2.36704 37928 ft 508 kts 70°
2026-05-06 17:23 39.20103 2.45229 37927 ft 507 kts 70°
2026-05-06 17:23 39.22540 2.53768 37937 ft 507 kts 70°
2026-05-06 17:24 39.24969 2.62320 37932 ft 507 kts 70°
2026-05-06 17:24 39.27389 2.70866 37936 ft 507 kts 71°
2026-05-06 17:25 39.29803 2.79414 37935 ft 507 kts 71°
2026-05-06 17:25 39.32211 2.87966 37940 ft 507 kts 71°
2026-05-06 17:26 39.34612 2.96521 37940 ft 506 kts 71°
2026-05-06 17:26 39.37006 3.05080 37942 ft 506 kts 71°
2026-05-06 17:27 39.39392 3.13641 37938 ft 506 kts 71°
2026-05-06 17:27 39.41774 3.22209 37937 ft 506 kts 71°
2026-05-06 17:28 39.44876 3.30327 37965 ft 504 kts 57°
2026-05-06 17:28 39.48482 3.38136 37942 ft 506 kts 58°
2026-05-06 17:29 39.51470 3.44652 37939 ft 506 kts 58°
2026-05-06 17:29 39.55063 3.52492 37938 ft 506 kts 58°
2026-05-06 17:30 39.58650 3.60338 37937 ft 506 kts 58°
2026-05-06 17:30 39.62233 3.68197 37941 ft 506 kts 59°
2026-05-06 17:31 39.65811 3.76062 37938 ft 507 kts 59°
2026-05-06 17:31 39.69389 3.83946 38017 ft 506 kts 58°
2026-05-06 17:32 39.72946 3.91807 37938 ft 503 kts 58°
2026-05-06 17:32 39.76492 3.99663 37958 ft 505 kts 58°
2026-05-06 17:33 39.80036 4.07533 37960 ft 504 kts 58°
2026-05-06 17:33 39.83550 4.15354 37965 ft 504 kts 58°
2026-05-06 17:34 39.86796 4.23428 37909 ft 503 kts 75°
2026-05-06 17:34 39.87588 4.27832 38038 ft 500 kts 78°
2026-05-06 17:34 39.88509 4.32222 37934 ft 502 kts 75°
2026-05-06 17:35 39.90391 4.40995 37958 ft 505 kts 76°
2026-05-06 17:35 39.92211 4.49801 37961 ft 504 kts 76°
2026-05-06 17:36 39.94933 4.63042 37942 ft 504 kts 76°
2026-05-06 17:36 39.96907 4.71807 37946 ft 504 kts 73°
2026-05-06 17:37 39.98911 4.80564 37939 ft 504 kts 74°
2026-05-06 17:37 40.00905 4.89331 37942 ft 504 kts 74°
2026-05-06 17:38 40.02890 4.98099 37939 ft 504 kts 74°
2026-05-06 17:38 40.04870 5.06872 37939 ft 504 kts 74°
2026-05-06 17:39 40.06843 5.15653 37940 ft 504 kts 74°
2026-05-06 17:39 40.08808 5.24433 37944 ft 504 kts 74°
2026-05-06 17:40 40.10767 5.33216 37941 ft 504 kts 74°
2026-05-06 17:40 40.12717 5.41997 37941 ft 503 kts 74°
2026-05-06 17:41 40.14660 5.50782 37940 ft 503 kts 75°
2026-05-06 17:41 40.16596 5.59570 37945 ft 503 kts 75°
2026-05-06 17:42 40.18525 5.68358 37944 ft 503 kts 75°
2026-05-06 17:42 40.20446 5.77148 37944 ft 502 kts 75°
2026-05-06 17:43 40.22359 5.85938 37945 ft 502 kts 75°
2026-05-06 17:43 40.24266 5.94729 37945 ft 502 kts 75°
2026-05-06 17:44 40.26166 6.03517 37947 ft 501 kts 75°
2026-05-06 17:44 40.28056 6.12302 37944 ft 501 kts 75°
2026-05-06 17:45 40.29942 6.21081 37942 ft 501 kts 75°
2026-05-06 17:45 40.31806 6.29801 37945 ft 500 kts 75°
2026-05-06 17:46 40.33675 6.38576 37947 ft 500 kts 75°
2026-05-06 17:46 40.35535 6.47345 37947 ft 499 kts 76°
2026-05-06 17:47 40.37389 6.56121 37943 ft 499 kts 76°
2026-05-06 17:47 40.39232 6.64887 37946 ft 499 kts 76°
2026-05-06 17:48 40.41069 6.73656 37948 ft 498 kts 76°
2026-05-06 17:48 40.42898 6.82418 37946 ft 498 kts 76°
2026-05-06 17:49 40.44717 6.91179 37942 ft 497 kts 76°
2026-05-06 17:49 40.46530 6.99944 37943 ft 497 kts 76°
2026-05-06 17:50 40.48337 7.08712 37942 ft 497 kts 76°
2026-05-06 17:50 40.50136 7.17482 37943 ft 497 kts 76°
2026-05-06 17:51 40.51926 7.26248 37944 ft 497 kts 76°
2026-05-06 17:51 40.53710 7.35013 37939 ft 496 kts 76°
2026-05-06 17:52 40.55488 7.43783 37945 ft 496 kts 76°
2026-05-06 17:52 40.56797 7.52634 37970 ft 490 kts 88°
2026-05-06 17:53 40.57538 7.61534 37891 ft 492 kts 85°
2026-05-06 17:53 40.58314 7.70496 37951 ft 494 kts 86°
2026-05-06 17:54 40.59079 7.79455 37943 ft 493 kts 86°
2026-05-06 17:54 40.59836 7.88419 37945 ft 493 kts 86°
2026-05-06 17:55 40.60587 7.97378 37941 ft 492 kts 86°
2026-05-06 17:55 40.61332 8.06331 37941 ft 492 kts 86°
2026-05-06 17:56 40.62070 8.15292 37939 ft 492 kts 86°
2026-05-06 17:56 40.62916 8.24230 37914 ft 494 kts 77°
2026-05-06 17:57 40.64112 8.28445 37945 ft 490 kts 65°
2026-05-06 17:57 40.65500 8.32552 37945 ft 494 kts 70°
2026-05-06 17:57 40.68053 8.40945 37976 ft 496 kts 68°
2026-05-06 17:58 40.70689 8.49345 37950 ft 495 kts 68°
2026-05-06 17:58 40.73324 8.57740 37952 ft 495 kts 68°
2026-05-06 17:59 40.75949 8.66130 37942 ft 495 kts 68°
2026-05-06 17:59 40.78568 8.74532 37954 ft 496 kts 68°
2026-05-06 18:00 40.81182 8.82937 37952 ft 495 kts 68°
2026-05-06 18:00 40.83791 8.91354 37950 ft 495 kts 69°
2026-05-06 18:01 40.86392 8.99774 37952 ft 495 kts 69°
2026-05-06 18:01 40.88981 9.08182 37959 ft 494 kts 69°
2026-05-06 18:02 40.91547 9.16540 37955 ft 494 kts 69°
2026-05-06 18:02 40.94125 9.24962 37959 ft 494 kts 69°
2026-05-06 18:03 40.96694 9.33383 37966 ft 494 kts 69°
2026-05-06 18:03 40.99257 9.41810 37964 ft 494 kts 69°
2026-05-06 18:04 41.01820 9.50264 37957 ft 494 kts 69°
2026-05-06 18:04 41.04374 9.58717 37963 ft 494 kts 69°
2026-05-06 18:05 41.06921 9.67174 37955 ft 494 kts 69°
2026-05-06 18:05 41.09467 9.75649 37947 ft 495 kts 70°
2026-05-06 18:06 41.12003 9.84126 37946 ft 495 kts 70°
2026-05-06 18:06 41.14537 9.92618 37942 ft 496 kts 70°
2026-05-06 18:07 41.17069 10.01134 37944 ft 496 kts 70°
2026-05-06 18:07 41.19599 10.09667 37943 ft 497 kts 70°
2026-05-06 18:08 41.22124 10.18215 37941 ft 497 kts 70°
2026-05-06 18:08 41.24640 10.26758 37948 ft 497 kts 70°
2026-05-06 18:09 41.27149 10.35309 37947 ft 496 kts 70°
2026-05-06 18:09 41.29649 10.43857 37944 ft 496 kts 70°
2026-05-06 18:10 41.32143 10.52407 37950 ft 496 kts 70°
2026-05-06 18:10 41.34631 10.60968 37940 ft 496 kts 70°
2026-05-06 18:11 41.36691 10.68079 37946 ft 496 kts 70°
2026-05-06 18:11 41.39566 10.78033 37943 ft 496 kts 70°
2026-05-06 18:12 41.42032 10.86597 37946 ft 495 kts 70°
2026-05-06 18:12 41.44492 10.95164 37954 ft 495 kts 70°
2026-05-06 18:13 41.47001 11.03703 37933 ft 496 kts 65°
2026-05-06 18:13 41.48871 11.07532 37874 ft 491 kts 45°
2026-05-06 18:13 41.51422 11.10511 38019 ft 486 kts 33°
2026-05-06 18:14 41.54142 11.13215 37913 ft 491 kts 36°
2026-05-06 18:14 41.56819 11.16054 37946 ft 491 kts 36°
2026-05-06 18:14 41.62210 11.21726 37942 ft 493 kts 36°
2026-05-06 18:15 41.67598 11.27391 37948 ft 493 kts 36°
2026-05-06 18:15 41.72983 11.33064 37950 ft 493 kts 36°
2026-05-06 18:16 41.78371 11.38753 37959 ft 493 kts 36°
2026-05-06 18:16 41.83755 11.44450 37963 ft 493 kts 36°
2026-05-06 18:17 41.88259 11.49227 37963 ft 493 kts 36°
2026-05-06 18:17 41.93635 11.54939 37958 ft 493 kts 36°
2026-05-06 18:18 41.98969 11.60618 37952 ft 493 kts 36°
2026-05-06 18:18 42.04341 11.66351 37968 ft 493 kts 36°
2026-05-06 18:19 42.09712 11.72097 37968 ft 493 kts 36°
2026-05-06 18:19 42.15078 11.77848 37977 ft 493 kts 36°
2026-05-06 18:20 42.20444 11.83613 37980 ft 493 kts 36°
2026-05-06 18:20 42.25807 11.89388 37988 ft 493 kts 36°
2026-05-06 18:21 42.31171 11.95177 37984 ft 493 kts 36°
2026-05-06 18:21 42.36535 12.00979 37988 ft 494 kts 36°
2026-05-06 18:22 42.41891 12.06784 37995 ft 494 kts 36°
2026-05-06 18:22 42.47251 12.12608 37989 ft 494 kts 36°
2026-05-06 18:23 42.52603 12.18436 37999 ft 494 kts 36°
2026-05-06 18:23 42.57961 12.24284 37987 ft 494 kts 36°
2026-05-06 18:24 42.63313 12.30139 37989 ft 494 kts 37°
2026-05-06 18:24 42.68666 12.36009 37974 ft 494 kts 36°
2026-05-06 18:25 42.73980 12.41848 37970 ft 494 kts 37°
2026-05-06 18:25 42.79322 12.47732 37982 ft 494 kts 37°
2026-05-06 18:26 42.84665 12.53630 37969 ft 494 kts 37°
2026-05-06 18:26 42.89996 12.59530 37976 ft 494 kts 37°
2026-05-06 18:27 42.95319 12.65433 37973 ft 493 kts 37°
2026-05-06 18:27 43.00640 12.71346 37973 ft 493 kts 37°
2026-05-06 18:28 43.05949 12.77263 37970 ft 492 kts 37°
2026-05-06 18:28 43.11257 12.83189 37962 ft 492 kts 37°
2026-05-06 18:29 43.16567 12.89129 37959 ft 493 kts 37°
2026-05-06 18:29 43.21877 12.95085 37953 ft 494 kts 37°
2026-05-06 18:30 43.27113 13.01206 37961 ft 495 kts 39°
2026-05-06 18:30 43.32287 13.07472 37949 ft 496 kts 39°
2026-05-06 18:31 43.37470 13.13731 37934 ft 497 kts 39°
2026-05-06 18:31 43.42651 13.19999 37931 ft 496 kts 39°
2026-05-06 18:32 43.47829 13.26279 37943 ft 496 kts 39°
2026-05-06 18:32 43.52998 13.32564 37934 ft 495 kts 39°
2026-05-06 18:33 43.58153 13.38846 37942 ft 494 kts 39°
2026-05-06 18:33 43.63300 13.45133 37935 ft 494 kts 39°
2026-05-06 18:34 43.68438 13.51424 37938 ft 494 kts 39°
2026-05-06 18:34 43.73574 13.57728 37936 ft 493 kts 39°
2026-05-06 18:35 43.78701 13.64036 37937 ft 493 kts 39°
2026-05-06 18:35 43.83822 13.70351 37934 ft 493 kts 39°
2026-05-06 18:36 43.88947 13.76686 37937 ft 493 kts 39°
2026-05-06 18:36 43.94032 13.82988 37937 ft 493 kts 39°
2026-05-06 18:37 43.99175 13.89376 37942 ft 493 kts 39°
2026-05-06 18:37 44.04210 13.95829 37946 ft 492 kts 41°
2026-05-06 18:38 44.09216 14.02317 37940 ft 492 kts 41°
2026-05-06 18:38 44.14186 14.08764 37943 ft 491 kts 41°
2026-05-06 18:39 44.19174 14.15250 37948 ft 490 kts 41°
2026-05-06 18:40 44.26633 14.24978 37952 ft 489 kts 41°
2026-05-06 18:40 44.31590 14.31464 37950 ft 488 kts 41°
2026-05-06 18:41 44.36538 14.37954 37953 ft 487 kts 41°
2026-05-06 18:41 44.41471 14.44439 37958 ft 486 kts 41°
2026-05-06 18:42 44.46389 14.50919 37958 ft 485 kts 41°
2026-05-06 18:42 44.51301 14.57407 37967 ft 484 kts 41°
2026-05-06 18:43 44.56195 14.63888 37973 ft 484 kts 41°
2026-05-06 18:43 44.61085 14.70380 37977 ft 484 kts 41°
2026-05-06 18:44 44.65964 14.76872 37974 ft 483 kts 41°
2026-05-06 18:44 44.70836 14.83370 37972 ft 483 kts 41°
2026-05-06 18:45 44.75701 14.89876 37972 ft 482 kts 41°
2026-05-06 18:45 44.80528 14.96346 37969 ft 482 kts 41°
2026-05-06 18:46 44.85378 15.02864 37975 ft 482 kts 41°
2026-05-06 18:46 44.90230 15.09399 37949 ft 482 kts 41°
2026-05-06 18:47 44.95085 15.15955 37971 ft 483 kts 41°
2026-05-06 18:47 44.99937 15.22524 37960 ft 484 kts 41°
2026-05-06 18:48 45.04792 15.29112 37968 ft 484 kts 41°
2026-05-06 18:48 45.09650 15.35722 37956 ft 485 kts 41°
2026-05-06 18:49 45.14510 15.42348 37934 ft 485 kts 41°
2026-05-06 18:49 45.19374 15.49000 37945 ft 486 kts 41°
2026-05-06 18:50 45.24237 15.55665 37938 ft 486 kts 41°
2026-05-06 18:50 45.29097 15.62343 37932 ft 485 kts 42°
2026-05-06 18:51 45.33937 15.69011 37928 ft 483 kts 42°
2026-05-06 18:51 45.38756 15.75665 37925 ft 482 kts 42°
2026-05-06 18:52 45.43555 15.82310 37928 ft 480 kts 42°
2026-05-06 18:52 45.45209 15.84603 37927 ft 480 kts 42°
2026-05-06 18:53 45.49981 15.91230 37922 ft 479 kts 42°
2026-05-06 18:53 45.54744 15.97864 37917 ft 478 kts 42°
2026-05-06 18:54 45.59484 16.04482 37915 ft 477 kts 42°
2026-05-06 18:54 45.64220 16.11109 37911 ft 476 kts 42°
2026-05-06 18:55 45.68939 16.17731 37912 ft 475 kts 43°
2026-05-06 18:55 45.73623 16.24320 37912 ft 475 kts 43°
2026-05-06 18:56 45.78359 16.30997 37919 ft 475 kts 43°
2026-05-06 18:56 45.83032 16.37604 37924 ft 475 kts 43°
2026-05-06 18:57 45.87731 16.44262 37921 ft 475 kts 43°
2026-05-06 18:57 45.92429 16.50937 37917 ft 475 kts 43°
2026-05-06 18:58 45.97125 16.57627 37923 ft 476 kts 43°
2026-05-06 18:58 46.01826 16.64338 37923 ft 476 kts 43°
2026-05-06 18:59 46.06521 16.71056 37922 ft 476 kts 43°
2026-05-06 18:59 46.11218 16.77791 37915 ft 476 kts 43°
2026-05-06 19:00 46.15909 16.84537 37913 ft 476 kts 43°
2026-05-06 19:00 46.20592 16.91287 37914 ft 476 kts 44°
2026-05-06 19:01 46.25119 16.98249 37864 ft 476 kts 55°
2026-05-06 19:01 46.26898 17.02257 38002 ft 473 kts 56°
2026-05-06 19:01 46.28781 17.06182 37874 ft 476 kts 54°
2026-05-06 19:02 46.32571 17.14000 37935 ft 475 kts 54°
2026-05-06 19:02 46.36339 17.21851 37908 ft 474 kts 54°
2026-05-06 19:03 46.40097 17.29703 37906 ft 474 kts 54°
2026-05-06 19:03 46.43850 17.37569 37901 ft 474 kts 54°
2026-05-06 19:04 46.47577 17.45401 37913 ft 475 kts 54°
2026-05-06 19:04 46.51234 17.53109 37922 ft 475 kts 55°
2026-05-06 19:05 46.54356 17.59705 37442 ft 471 kts 55°
2026-05-06 19:05 46.56224 17.63659 36472 ft 477 kts 55°
2026-05-06 19:05 46.58099 17.67633 35865 ft 475 kts 55°
2026-05-06 19:05 46.59953 17.71569 35553 ft 467 kts 55°
2026-05-06 19:06 46.61776 17.75444 35114 ft 462 kts 56°
2026-05-06 19:06 46.63587 17.79299 34581 ft 460 kts 56°
2026-05-06 19:06 46.65366 17.83092 34042 ft 459 kts 56°
2026-05-06 19:06 46.67161 17.86922 33484 ft 457 kts 56°
2026-05-06 19:07 46.68946 17.90738 32958 ft 454 kts 56°
2026-05-06 19:07 46.70716 17.94525 32464 ft 451 kts 56°
2026-05-06 19:07 46.72466 17.98276 31965 ft 443 kts 56°
2026-05-06 19:07 46.74215 18.02031 31498 ft 440 kts 55°
2026-05-06 19:08 46.75930 18.05715 31007 ft 438 kts 55°
2026-05-06 19:08 46.77613 18.09337 30528 ft 437 kts 55°
2026-05-06 19:08 46.79321 18.13019 29788 ft 441 kts 55°
2026-05-06 19:08 46.81043 18.16735 28822 ft 442 kts 55°
2026-05-06 19:09 46.82779 18.20485 27944 ft 438 kts 56°
2026-05-06 19:09 46.84473 18.24151 27101 ft 434 kts 56°
2026-05-06 19:09 46.86130 18.27741 26303 ft 430 kts 56°
2026-05-06 19:09 46.87790 18.31340 25517 ft 425 kts 56°
2026-05-06 19:10 46.89434 18.34912 24762 ft 421 kts 56°
2026-05-06 19:10 46.91064 18.38455 24029 ft 417 kts 56°
2026-05-06 19:10 46.92673 18.41957 23285 ft 413 kts 56°
2026-05-06 19:10 46.94267 18.45430 22446 ft 409 kts 56°
2026-05-06 19:11 46.95846 18.48875 21654 ft 405 kts 57°
2026-05-06 19:11 46.97408 18.52285 20871 ft 402 kts 57°
2026-05-06 19:11 46.98992 18.55622 20110 ft 398 kts 51°
2026-05-06 19:11 47.01074 18.58243 19365 ft 394 kts 30°
2026-05-06 19:12 47.03352 18.60154 18689 ft 390 kts 31°
2026-05-06 19:12 47.05677 18.62228 17963 ft 386 kts 31°
2026-05-06 19:12 47.07958 18.64262 17177 ft 382 kts 31°
2026-05-06 19:12 47.10224 18.66279 16433 ft 379 kts 31°
2026-05-06 19:13 47.12370 18.68189 15735 ft 376 kts 31°
2026-05-06 19:13 47.14581 18.70159 15035 ft 372 kts 31°
2026-05-06 19:13 47.16782 18.72120 14344 ft 369 kts 31°
2026-05-06 19:13 47.18883 18.74240 13639 ft 365 kts 44°
2026-05-06 19:14 47.20306 18.77078 12929 ft 359 kts 63°
2026-05-06 19:14 47.21555 18.80201 12425 ft 349 kts 59°
2026-05-06 19:14 47.22811 18.83143 12075 ft 336 kts 59°
2026-05-06 19:14 47.24032 18.86002 11744 ft 324 kts 59°
2026-05-06 19:15 47.25205 18.88757 11453 ft 312 kts 60°
2026-05-06 19:15 47.26338 18.91420 11128 ft 302 kts 60°
2026-05-06 19:15 47.27433 18.93998 10825 ft 293 kts 60°
2026-05-06 19:15 47.28509 18.96534 10544 ft 296 kts 60°
2026-05-06 19:16 47.29614 18.99138 10218 ft 303 kts 60°
2026-05-06 19:16 47.30787 19.01707 9980 ft 303 kts 50°
2026-05-06 19:16 47.32325 19.03852 9684 ft 304 kts 42°
2026-05-06 19:16 47.33905 19.05916 9357 ft 304 kts 42°
2026-05-06 19:17 47.35462 19.07974 9198 ft 296 kts 43°
2026-05-06 19:17 47.37145 19.09641 8894 ft 292 kts 19°
2026-05-06 19:17 47.39122 19.10081 8564 ft 285 kts 351°
2026-05-06 19:17 47.40963 19.09230 8285 ft 273 kts 324°
2026-05-06 19:18 47.42387 19.07483 8016 ft 264 kts 309°
2026-05-06 19:18 47.43660 19.05547 7726 ft 262 kts 308°
2026-05-06 19:18 47.44897 19.03617 7428 ft 261 kts 308°
2026-05-06 19:18 47.46148 19.01638 7120 ft 261 kts 307°
2026-05-06 19:19 47.47368 18.99689 6811 ft 261 kts 307°
2026-05-06 19:19 47.48613 18.97684 6515 ft 261 kts 307°
2026-05-06 19:19 47.49819 18.95731 6228 ft 261 kts 306°
2026-05-06 19:19 47.51042 18.93739 5910 ft 261 kts 306°
2026-05-06 19:20 47.52322 18.91846 5641 ft 265 kts 319°
2026-05-06 19:20 47.54065 18.90836 5270 ft 279 kts 351°
2026-05-06 19:20 47.56025 18.91115 4908 ft 285 kts 16°
2026-05-06 19:20 47.57711 18.92518 4626 ft 276 kts 41°
2026-05-06 19:21 47.58805 18.94752 4427 ft 256 kts 71°
2026-05-06 19:21 47.59085 18.97172 4284 ft 234 kts 100°
2026-05-06 19:21 47.58645 18.99380 4126 ft 218 kts 125°
2026-05-06 19:21 47.57791 19.01162 3961 ft 207 kts 137°
2026-05-06 19:22 47.56856 19.02671 3785 ft 189 kts 140°
2026-05-06 19:22 47.55991 19.04045 3565 ft 176 kts 140°
2026-05-06 19:22 47.55184 19.05340 3390 ft 168 kts 140°
2026-05-06 19:22 47.54405 19.06601 3180 ft 164 kts 140°
2026-05-06 19:23 47.53646 19.07832 2983 ft 160 kts 140°
2026-05-06 19:23 47.52894 19.09053 2775 ft 161 kts 140°
2026-05-06 19:23 47.52142 19.10277 2569 ft 159 kts 140°
2026-05-06 19:23 47.51414 19.11461 2377 ft 152 kts 139°
2026-05-06 19:24 47.50708 19.12606 2186 ft 150 kts 139°
2026-05-06 19:24 47.50009 19.13740 1987 ft 149 kts 139°
2026-05-06 19:24 47.49322 19.14861 1776 ft 144 kts 139°
2026-05-06 19:24 47.48652 19.15946 1593 ft 142 kts 139°
2026-05-06 19:25 47.47984 19.17026 1403 ft 143 kts 136°
2026-05-06 19:25 47.47302 19.18105 1190 ft 145 kts 136°
2026-05-06 19:25 47.46625 19.19211 1017 ft 144 kts 134°
2026-05-06 19:25 47.45954 19.20318 807 ft 145 kts 133°
2026-05-06 19:26 47.45277 19.21433 619 ft 144 kts 133°
2026-05-06 19:26 47.44613 19.22497 459 ft 138 kts 132°
2026-05-06 19:26 47.44046 19.23403 457 ft 96 kts 134°
2026-05-06 19:26 47.43701 19.23972 456 ft 53 kts 133°
2026-05-06 19:27 47.43455 19.24369 454 ft 48 kts 133°
2026-05-06 19:27 47.43302 19.24615 455 ft 28 kts 133°
2026-05-06 19:27 47.43185 19.24804 458 ft 24 kts 132°
2026-05-06 19:27 47.43115 19.24925 460 ft 13 kts 121°
2026-05-06 19:28 47.43111 19.25062 460 ft 15 kts 58°
2026-05-06 19:28 47.43190 19.25181 460 ft 18 kts 40°
2026-05-06 19:28 47.43287 19.25309 460 ft 20 kts 43°
2026-05-06 19:28 47.43393 19.25455 460 ft 21 kts 42°
2026-05-06 19:29 47.43504 19.25601 460 ft 22 kts 43°
2026-05-06 19:29 47.43623 19.25761 459 ft 22 kts 42°
2026-05-06 19:29 47.43717 19.25889 460 ft 13 kts 49°
2026-05-06 19:29 47.43711 19.26012 460 ft 15 kts 136°
2026-05-06 19:30 47.43675 19.26157 460 ft 17 kts 86°
2026-05-06 19:30 47.43674 19.26316 460 ft 15 kts 107°
2026-05-06 19:30 47.43609 19.26441 460 ft 11 kts 134°
2026-05-06 19:30 47.43576 19.26485 460 ft 3 kts 159°
2026-05-06 19:31 47.43572 19.26483 460 ft 1 kts 206°
2026-05-06 19:31 47.43548 19.26450 460 ft 6 kts 223°
2026-05-06 19:31 47.43538 19.26436 460 ft 0 kts 223°